Airfield :
LOGIN :

Register | Disclaimer

   EN    FR    IT 

 










Legend :    VFR   Marginal VFR   IFR   Intensive IFR   Very Intensive IFR
Visi :
Ceiling :
>= 8 km
>= 3000ft
5 to 8 km
1000 to 3000 ft
1500m to 5 km
500 to 1000 ft
800 to 1500m
200 to 500 ft
< 800m
< 200 ft
Symbols :   Thunderstorms  Fog  Heavy snow  Heavy precipitations  Wind > 20 kt
SIGMETs :     Misc.  Thunderstorms  Icing  Turbulence  Mountain Waves  Volcanic Ashes






- Airport Elevation : 392 ft
- IATA code : CDG


LFPG - Paris-Aeroport Charles De Gaulle

CURRENT METAR :
  • 221400Z 05012KT 020V090 CAVOK 16/M05 Q1023 NOSIG

EXPIRED METARs :
  • 221330Z 05012KT 010V100 CAVOK 16/M02 Q1023 NOSIG
  • 221300Z 04011KT CAVOK 15/M02 Q1023 NOSIG
  • 221230Z 04012KT 020V080 CAVOK 15/M01 Q1023 NOSIG
  • 221200Z 03011KT CAVOK 14/00 Q1023 NOSIG

TAF TAF LFPG
Valid from the 22 at 12:00 until the 23 at 18:00 UTC


221100Z 2212/2318 04012KT CAVOK TX17/2215Z TN04/2305Z
ATIS : +33 1 48 62 10 92



MET'MAP, your aeronautical weather chart ! - Copyright ORBIFLY December 2007 - Disclaimer

ORBIFLY MET'MAP TEAM :

Programming & Development : Alexandra Zaïnal
Concept & original design : Baudouin d'Aumeries
Assistance for programming : Marc-Olivier Méhu
Technical & hardware support : Manuel Goepfert

Contact : metmap@orbifly.com




SOURCES & CREDITS :

   NOAA